4XAFU LLHZ-LLMG

Flight info

Callsign 4XAFU
Flight time 0h 10m
Altitude 1200
Route SFAIM VINGT PELEG OLGAH HADRA DALIA EMMEK LLRD ZMGID AFULA
Aircraft AT8T/L-V/N

Departure

Time 2026-04-24 14:42
Airport Herzliya Airport (LLHZ)

Arrival

Time 2026-04-24 14:52
Airport Megiddo Airport (LLMG)
Time Latitude Longitude Altitude Speed Heading
2026-04-24 14:37 32.17915 34.83657 117 ft 0 kts 182°
2026-04-24 14:38 32.17896 34.83656 116 ft 19 kts 183°
2026-04-24 14:39 32.17915 34.83657 117 ft 0 kts 182°
2026-04-24 14:40 32.17913 34.83657 117 ft 3 kts 168°
2026-04-24 14:40 32.17919 34.83674 117 ft 4 kts 44°
2026-04-24 14:40 32.17927 34.83691 117 ft 6 kts 121°
2026-04-24 14:40 32.17907 34.83746 122 ft 13 kts 112°
2026-04-24 14:41 32.17889 34.83850 122 ft 7 kts 28°
2026-04-24 14:41 32.17926 34.83820 123 ft 2 kts 289°
2026-04-24 14:41 32.17937 34.83781 123 ft 27 kts 289°
2026-04-24 14:41 32.18088 34.83215 260 ft 93 kts 290°
2026-04-24 14:42 32.18337 34.82634 497 ft 92 kts 346°
2026-04-24 14:42 32.18979 34.82992 717 ft 128 kts 69°
2026-04-24 14:42 32.18791 34.84090 762 ft 116 kts 95°
2026-04-24 14:42 32.18615 34.84946 776 ft 115 kts 98°
2026-04-24 14:43 32.17847 34.85249 820 ft 146 kts 214°
2026-04-24 14:43 32.17760 34.84219 832 ft 132 kts 290°
2026-04-24 14:43 32.17895 34.83300 964 ft 109 kts 292°
2026-04-24 14:43 32.18333 34.82708 964 ft 97 kts 347°
2026-04-24 14:44 32.18994 34.82520 1017 ft 100 kts 343°
2026-04-24 14:44 32.19587 34.82033 1078 ft 101 kts 329°
2026-04-24 14:44 32.20078 34.81559 1263 ft 82 kts 327°
2026-04-24 14:44 32.20648 34.81262 1255 ft 113 kts 349°
2026-04-24 14:45 32.21481 34.81030 1458 ft 125 kts 357°
2026-04-24 14:45 32.22356 34.81061 1542 ft 132 kts
2026-04-24 14:45 32.23336 34.81202 1322 ft 144 kts
2026-04-24 14:45 32.24239 34.81415 1755 ft 123 kts 12°
2026-04-24 14:46 32.25070 34.81549 2135 ft 124 kts
2026-04-24 14:46 32.25691 34.81638 2371 ft 125 kts
2026-04-24 14:46 32.26673 34.81782 2081 ft 154 kts
2026-04-24 14:46 32.27697 34.81954 1973 ft 141 kts
2026-04-24 14:47 32.28502 34.82088 2009 ft 127 kts
2026-04-24 14:47 32.29518 34.82236 2139 ft 121 kts
2026-04-24 14:47 32.32211 34.82677 2195 ft 145 kts 10°
2026-04-24 14:47 32.36311 34.83487 1806 ft 146 kts 11°
2026-04-24 14:48 32.40160 34.84453 1876 ft 142 kts 15°
2026-04-24 14:48 32.43263 34.87185 1708 ft 154 kts 60°
2026-04-24 14:48 32.45793 34.90484 2784 ft 135 kts 44°
2026-04-24 14:48 32.48473 34.93848 2907 ft 143 kts 46°
2026-04-24 14:49 32.52856 34.99354 3013 ft 141 kts 44°
2026-04-24 14:49 32.58184 35.06344 3353 ft 142 kts 47°
2026-04-24 14:49 32.60406 35.10526 3462 ft 146 kts 77°
2026-04-24 14:49 32.62627 35.14282 2960 ft 150 kts 31°
2026-04-24 14:50 32.65544 35.17364 2344 ft 176 kts 107°
2026-04-24 14:50 32.61708 35.18248 2145 ft 178 kts 182°
2026-04-24 14:50 32.61086 35.18249 2014 ft 175 kts 185°
2026-04-24 14:50 32.60195 35.18311 1923 ft 128 kts 164°
2026-04-24 14:51 32.59720 35.18857 1739 ft 83 kts 81°
2026-04-24 14:51 32.59709 35.19557 1297 ft 81 kts 80°
2026-04-24 14:51 32.59769 35.20218 987 ft 81 kts 72°
2026-04-24 14:51 32.59764 35.20891 619 ft 82 kts 86°
2026-04-24 14:52 32.59739 35.21544 321 ft 78 kts 85°
2026-04-24 14:52 32.59737 35.22174 183 ft 71 kts 94°
2026-04-24 14:52 32.59722 35.22563 185 ft 32 kts 93°
2026-04-24 14:52 32.59719 35.22832 186 ft 37 kts 90°
2026-04-24 14:53 32.59715 35.23199 181 ft 51 kts 92°
2026-04-24 14:53 32.59655 35.23489 178 ft 28 kts 150°
2026-04-24 14:53 32.59492 35.23602 183 ft 26 kts 146°
2026-04-24 14:53 32.59451 35.23675 182 ft 4 kts 49°
2026-04-24 14:54 32.59480 35.23703 182 ft 1 kts 357°
2026-04-24 14:54 32.59484 35.23699 182 ft 2 kts 262°
2026-04-24 14:54 32.59481 35.23696 182 ft 0 kts 174°
2026-04-24 14:55 32.59481 35.23704 178 ft 0 kts 340°